Time,TemperatureF,DewpointF,PressureIn,WindDirection,WindDirectionDegrees,WindSpeedMPH,WindSpeedGustMPH,Humidity,HourlyPrecipIn,Conditions,Clouds,dailyrainin,SoftwareType,DateUTC
2013-02-28 00:07:00,14.6,8.0,30.36,SSW,207,1.0,1.0,74,0.00,,,0.00,weatherlink.com 1.10,2013-02-28 07:07:00,
2013-02-28 00:22:00,14.4,8.0,30.36,SW,219,0.0,1.0,74,0.00,,,0.00,weatherlink.com 1.10,2013-02-28 07:22:00,
2013-02-28 00:37:00,14.4,7.0,30.36,SSW,210,0.0,1.0,73,0.00,,,0.00,weatherlink.com 1.10,2013-02-28 07:37:00,
2013-02-28 00:52:00,14.3,7.0,30.38,SW,228,0.0,0.0,73,0.00,,,0.00,weatherlink.com 1.10,2013-02-28 07:52:00,
2013-02-28 01:07:00,13.4,7.0,30.39,NE,56,0.0,1.0,75,0.00,,,0.00,weatherlink.com 1.10,2013-02-28 08:07:00,
2013-02-28 01:22:00,12.4,7.0,30.39,ENE,57,0.0,0.0,77,0.00,,,0.00,weatherlink.com 1.10,2013-02-28 08:22:00,
2013-02-28 01:37:00,12.5,7.0,30.40,SW,218,0.0,1.0,78,0.00,,,0.00,weatherlink.com 1.10,2013-02-28 08:37:00,
2013-02-28 01:52:00,13.3,7.0,30.39,SW,235,0.0,2.0,75,0.00,,,0.00,weatherlink.com 1.10,2013-02-28 08:52:00,
2013-02-28 02:08:00,13.8,6.0,30.40,SSW,208,0.0,2.0,72,0.00,,,0.00,weatherlink.com 1.10,2013-02-28 09:08:00,
2013-02-28 02:23:00,13.4,6.0,30.40,SE,129,0.0,1.0,72,0.00,,,0.00,weatherlink.com 1.10,2013-02-28 09:23:00,
2013-02-28 02:38:00,12.2,5.0,30.40,SSW,198,0.0,1.0,74,0.00,,,0.00,weatherlink.com 1.10,2013-02-28 09:38:00,
2013-02-28 02:53:00,12.6,6.0,30.40,SSW,212,0.0,1.0,75,0.00,,,0.00,weatherlink.com 1.10,2013-02-28 09:53:00,
2013-02-28 03:08:00,12.7,6.0,30.39,SW,217,1.0,1.0,74,0.00,,,0.00,weatherlink.com 1.10,2013-02-28 10:08:00,
2013-02-28 03:23:00,13.3,6.0,30.39,SW,221,1.0,2.0,72,0.00,,,0.00,weatherlink.com 1.10,2013-02-28 10:23:00,
2013-02-28 03:38:00,13.3,6.0,30.39,SW,215,1.0,1.0,71,0.00,,,0.00,weatherlink.com 1.10,2013-02-28 10:38:00,
2013-02-28 03:53:00,13.9,5.0,30.38,SSW,197,0.0,3.0,69,0.00,,,0.00,weatherlink.com 1.10,2013-02-28 10:53:00,
2013-02-28 04:08:00,13.4,5.0,30.38,SSW,198,1.0,3.0,69,0.00,,,0.00,weatherlink.com 1.10,2013-02-28 11:08:00,
2013-02-28 04:23:00,13.7,5.0,30.38,SW,235,0.0,4.0,69,0.00,,,0.00,weatherlink.com 1.10,2013-02-28 11:23:00,
2013-02-28 04:38:00,13.7,5.0,30.38,South,175,2.0,5.0,68,0.00,,,0.00,weatherlink.com 1.10,2013-02-28 11:38:00,
2013-02-28 04:53:00,13.7,5.0,30.38,SSW,205,0.0,4.0,67,0.00,,,0.00,weatherlink.com 1.10,2013-02-28 11:53:00,
2013-02-28 05:08:00,13.6,5.0,30.38,SSW,200,0.0,3.0,67,0.00,,,0.00,weatherlink.com 1.10,2013-02-28 12:08:00,
2013-02-28 05:23:00,13.5,4.0,30.38,SW,222,2.0,5.0,67,0.00,,,0.00,weatherlink.com 1.10,2013-02-28 12:23:00,
2013-02-28 05:38:00,13.2,4.0,30.39,South,189,2.0,3.0,67,0.00,,,0.00,weatherlink.com 1.10,2013-02-28 12:38:00,
2013-02-28 05:53:00,13.3,4.0,30.38,South,186,1.0,4.0,67,0.00,,,0.00,weatherlink.com 1.10,2013-02-28 12:53:00,
2013-02-28 06:08:00,13.9,4.0,30.38,SSW,193,3.0,5.0,66,0.00,,,0.00,weatherlink.com 1.10,2013-02-28 13:08:00,
2013-02-28 06:23:00,14.6,4.0,30.38,SSW,197,2.0,6.0,64,0.00,,,0.00,weatherlink.com 1.10,2013-02-28 13:23:00,
2013-02-28 06:38:00,14.4,4.0,30.38,SSW,205,3.0,6.0,63,0.00,,,0.00,weatherlink.com 1.10,2013-02-28 13:38:00,
2013-02-28 06:53:00,14.4,4.0,30.39,South,186,2.0,4.0,64,0.00,,,0.00,weatherlink.com 1.10,2013-02-28 13:53:00,
2013-02-28 07:08:00,16.1,4.0,30.39,SW,217,2.0,5.0,60,0.00,,,0.00,weatherlink.com 1.10,2013-02-28 14:08:00,
2013-02-28 07:23:00,17.7,5.0,30.39,SSW,203,0.0,3.0,58,0.00,,,0.00,weatherlink.com 1.10,2013-02-28 14:23:00,
2013-02-28 07:38:00,18.7,5.0,30.39,South,177,1.0,4.0,55,0.00,,,0.00,weatherlink.com 1.10,2013-02-28 14:38:00,
2013-02-28 07:53:00,20.1,6.0,30.40,SW,215,0.0,4.0,54,0.00,,,0.00,weatherlink.com 1.10,2013-02-28 14:53:00,
2013-02-28 08:08:00,22.3,7.0,30.40,SW,222,1.0,1.0,51,0.00,,,0.00,weatherlink.com 1.10,2013-02-28 15:08:00,
2013-02-28 08:23:00,24.1,7.0,30.40,SSW,201,0.0,2.0,49,0.00,,,0.00,weatherlink.com 1.10,2013-02-28 15:23:00,
2013-02-28 08:38:00,28.0,9.0,30.41,SW,214,0.0,1.0,45,0.00,,,0.00,weatherlink.com 1.10,2013-02-28 15:38:00,
2013-02-28 08:53:00,30.0,7.0,30.40,SW,233,1.0,3.0,38,0.00,,,0.00,weatherlink.com 1.10,2013-02-28 15:53:00,
2013-02-28 09:08:00,32.0,9.0,30.40,SW,219,1.0,2.0,38,0.00,,,0.00,weatherlink.com 1.10,2013-02-28 16:08:00,
2013-02-28 09:23:00,32.3,9.0,30.40,SSW,205,0.0,3.0,38,0.00,,,0.00,weatherlink.com 1.10,2013-02-28 16:23:00,
2013-02-28 09:39:00,35.6,9.0,30.40,SW,233,2.0,2.0,33,0.00,,,0.00,weatherlink.com 1.10,2013-02-28 16:39:00,
2013-02-28 09:54:00,35.9,10.0,30.41,SE,124,0.0,4.0,34,0.00,,,0.00,weatherlink.com 1.10,2013-02-28 16:54:00,
2013-02-28 10:09:00,36.5,9.0,30.40,WSW,242,3.0,3.0,32,0.00,,,0.00,weatherlink.com 1.10,2013-02-28 17:09:00,
2013-02-28 10:24:00,37.3,9.0,30.40,SW,217,1.0,3.0,31,0.00,,,0.00,weatherlink.com 1.10,2013-02-28 17:24:00,
2013-02-28 10:39:00,38.8,8.0,30.40,SW,215,0.0,4.0,28,0.00,,,0.00,weatherlink.com 1.10,2013-02-28 17:39:00,
2013-02-28 10:54:00,40.7,9.0,30.40,WSW,239,1.0,3.0,27,0.00,,,0.00,weatherlink.com 1.10,2013-02-28 17:54:00,
2013-02-28 11:09:00,41.6,8.0,30.39,ESE,104,3.0,4.0,25,0.00,,,0.00,weatherlink.com 1.10,2013-02-28 18:09:00,
2013-02-28 11:24:00,41.6,10.0,30.38,SE,134,1.0,4.0,27,0.00,,,0.00,weatherlink.com 1.10,2013-02-28 18:24:00,
2013-02-28 11:39:00,42.9,9.0,30.37,SW,217,1.0,3.0,25,0.00,,,0.00,weatherlink.com 1.10,2013-02-28 18:39:00,
2013-02-28 11:54:00,44.3,7.0,30.37,SW,233,2.0,4.0,22,0.00,,,0.00,weatherlink.com 1.10,2013-02-28 18:54:00,
2013-02-28 12:09:00,42.1,8.0,30.36,NW,315,4.0,10.0,25,0.00,,,0.00,weatherlink.com 1.10,2013-02-28 19:09:00,
2013-02-28 12:24:00,41.9,8.0,30.35,NW,307,3.0,13.0,25,0.00,,,0.00,weatherlink.com 1.10,2013-02-28 19:24:00,
2013-02-28 12:39:00,42.0,9.0,30.34,WNW,300,6.0,14.0,26,0.00,,,0.00,weatherlink.com 1.10,2013-02-28 19:39:00,
2013-02-28 12:54:00,41.9,7.0,30.33,WNW,284,3.0,13.0,24,0.00,,,0.00,weatherlink.com 1.10,2013-02-28 19:54:00,
2013-02-28 13:09:00,41.4,9.0,30.32,WNW,294,7.0,16.0,26,0.00,,,0.00,weatherlink.com 1.10,2013-02-28 20:09:00,
2013-02-28 13:24:00,41.6,8.0,30.31,West,260,3.0,16.0,25,0.00,,,0.00,weatherlink.com 1.10,2013-02-28 20:24:00,
2013-02-28 13:39:00,41.3,8.0,30.30,WSW,256,3.0,14.0,25,0.00,,,0.00,weatherlink.com 1.10,2013-02-28 20:39:00,
2013-02-28 13:54:00,41.4,8.0,30.29,WNW,291,5.0,18.0,25,0.00,,,0.00,weatherlink.com 1.10,2013-02-28 20:54:00,
2013-02-28 14:09:00,41.8,9.0,30.29,West,259,1.0,13.0,26,0.00,,,0.00,weatherlink.com 1.10,2013-02-28 21:09:00,
2013-02-28 14:24:00,42.1,9.0,30.29,WNW,285,8.0,15.0,26,0.00,,,0.00,weatherlink.com 1.10,2013-02-28 21:24:00,
2013-02-28 14:39:00,42.2,11.0,30.29,SW,233,4.0,14.0,28,0.00,,,0.00,weatherlink.com 1.10,2013-02-28 21:39:00,
2013-02-28 14:54:00,42.5,11.0,30.29,West,278,13.0,21.0,27,0.00,,,0.00,weatherlink.com 1.10,2013-02-28 21:54:00,
2013-02-28 15:09:00,41.4,11.0,30.30,WNW,294,4.0,18.0,29,0.00,,,0.00,weatherlink.com 1.10,2013-02-28 22:09:00,
2013-02-28 15:24:00,41.0,11.0,30.30,WNW,288,2.0,20.0,29,0.00,,,0.00,weatherlink.com 1.10,2013-02-28 22:24:00,
2013-02-28 15:39:00,40.2,11.0,30.30,WSW,252,4.0,20.0,30,0.00,,,0.00,weatherlink.com 1.10,2013-02-28 22:39:00,
2013-02-28 15:54:00,40.0,12.0,30.30,NW,305,8.0,18.0,32,0.00,,,0.00,weatherlink.com 1.10,2013-02-28 22:54:00,
2013-02-28 16:09:00,39.7,11.0,30.31,WNW,290,14.0,17.0,31,0.00,,,0.00,weatherlink.com 1.10,2013-02-28 23:09:00,
2013-02-28 16:24:00,40.0,13.0,30.31,NW,309,6.0,15.0,33,0.00,,,0.00,weatherlink.com 1.10,2013-02-28 23:24:00,
2013-02-28 16:39:00,39.4,13.0,30.31,NNW,347,15.0,15.0,34,0.00,,,0.00,weatherlink.com 1.10,2013-02-28 23:39:00,
2013-02-28 16:54:00,38.3,12.0,30.30,West,269,12.0,18.0,34,0.00,,,0.00,weatherlink.com 1.10,2013-02-28 23:54:00,
2013-02-28 17:09:00,37.9,12.0,30.31,SW,221,9.0,10.0,35,0.00,,,0.00,weatherlink.com 1.10,2013-03-01 00:09:00,
2013-02-28 17:24:00,38.0,13.0,30.31,NW,318,8.0,12.0,36,0.00,,,0.00,weatherlink.com 1.10,2013-03-01 00:24:00,
2013-02-28 17:39:00,37.5,13.0,30.31,West,269,7.0,15.0,36,0.00,,,0.00,weatherlink.com 1.10,2013-03-01 00:39:00,
2013-02-28 17:54:00,37.1,13.0,30.31,WNW,293,9.0,18.0,37,0.00,,,0.00,weatherlink.com 1.10,2013-03-01 00:54:00,
2013-02-28 18:09:00,36.8,13.0,30.31,West,264,7.0,12.0,37,0.00,,,0.00,weatherlink.com 1.10,2013-03-01 01:09:00,
2013-02-28 18:25:00,36.8,13.0,30.32,WNW,295,10.0,11.0,37,0.00,,,0.00,weatherlink.com 1.10,2013-03-01 01:25:00,
2013-02-28 18:39:00,36.7,13.0,30.32,WNW,290,7.0,14.0,37,0.00,,,0.00,weatherlink.com 1.10,2013-03-01 01:39:00,
2013-02-28 18:55:00,36.7,13.0,30.33,WNW,283,7.0,13.0,37,0.00,,,0.00,weatherlink.com 1.10,2013-03-01 01:55:00,
2013-02-28 19:10:00,36.3,13.0,30.34,West,277,3.0,7.0,38,0.00,,,0.00,weatherlink.com 1.10,2013-03-01 02:10:00,
2013-02-28 19:25:00,36.2,13.0,30.34,WNW,300,4.0,7.0,38,0.00,,,0.00,weatherlink.com 1.10,2013-03-01 02:25:00,
2013-02-28 19:40:00,36.5,13.0,30.34,WNW,293,0.0,10.0,38,0.00,,,0.00,weatherlink.com 1.10,2013-03-01 02:40:00,
2013-02-28 19:55:00,36.8,13.0,30.35,WNW,287,4.0,11.0,38,0.00,,,0.00,weatherlink.com 1.10,2013-03-01 02:55:00,
2013-02-28 20:10:00,36.4,14.0,30.35,WNW,290,1.0,8.0,40,0.00,,,0.00,weatherlink.com 1.10,2013-03-01 03:10:00,
2013-02-28 20:25:00,36.3,13.0,30.35,WNW,288,4.0,10.0,39,0.00,,,0.00,weatherlink.com 1.10,2013-03-01 03:25:00,
2013-02-28 20:40:00,35.6,13.0,30.35,WNW,287,0.0,4.0,40,0.00,,,0.00,weatherlink.com 1.10,2013-03-01 03:40:00,
2013-02-28 20:55:00,35.7,13.0,30.35,NW,305,5.0,8.0,40,0.00,,,0.00,weatherlink.com 1.10,2013-03-01 03:55:00,
2013-02-28 21:10:00,35.9,14.0,30.35,NE,43,1.0,10.0,40,0.00,,,0.00,weatherlink.com 1.10,2013-03-01 04:10:00,
2013-02-28 21:25:00,35.7,14.0,30.35,WNW,290,1.0,11.0,41,0.00,,,0.00,weatherlink.com 1.10,2013-03-01 04:25:00,
2013-02-28 21:40:00,35.3,14.0,30.35,NW,323,3.0,5.0,41,0.00,,,0.00,weatherlink.com 1.10,2013-03-01 04:40:00,
2013-02-28 21:55:00,35.3,14.0,30.34,WNW,288,3.0,6.0,41,0.00,,,0.00,weatherlink.com 1.10,2013-03-01 04:55:00,
2013-02-28 22:10:00,35.0,14.0,30.35,NW,311,2.0,5.0,42,0.00,,,0.00,weatherlink.com 1.10,2013-03-01 05:10:00,
2013-02-28 22:25:00,34.8,14.0,30.34,NW,325,0.0,5.0,43,0.00,,,0.00,weatherlink.com 1.10,2013-03-01 05:25:00,
2013-02-28 22:40:00,35.0,13.0,30.33,West,260,2.0,7.0,41,0.00,,,0.00,weatherlink.com 1.10,2013-03-01 05:40:00,
2013-02-28 22:55:00,36.0,13.0,30.32,West,270,2.0,9.0,39,0.00,,,0.00,weatherlink.com 1.10,2013-03-01 05:55:00,
2013-02-28 23:10:00,35.8,14.0,30.32,West,270,1.0,6.0,40,0.00,,,0.00,weatherlink.com 1.10,2013-03-01 06:10:00,
2013-02-28 23:25:00,35.3,14.0,30.32,West,276,0.0,5.0,41,0.00,,,0.00,weatherlink.com 1.10,2013-03-01 06:25:00,
2013-02-28 23:40:00,34.5,14.0,30.32,WNW,291,1.0,3.0,43,0.00,,,0.00,weatherlink.com 1.10,2013-03-01 06:40:00,
2013-02-28 23:55:00,34.6,14.0,30.32,WNW,301,0.0,2.0,42,0.00,,,0.00,weatherlink.com 1.10,2013-03-01 06:55:00,